Location: Bois de la Silve
(44.4667°N, 6.7833°E)
Time: 04:28:28
(UTC+00:00)

Meteor 1-5 Rocket - Pass Details

Date: 14 July 2020
Orbit: 790 x 915 km, 81.2° (Epoch: 06 August)

Event Time Altitude Azimuth Distance (km) Brightness Sun altitude
Exits shadow 01:55:46 27° 212° (SSW) 1,585 5.0 -16.9°
Maximum altitude 01:58:49 61° 284° (WNW) 990 4.4 -16.6°
Drops below altitude 10° 02:04:37 10° 4° (N) 2,574 7.6 -16.0°
Sets 02:07:10 0° 8° (N) 3,532 8.6 -15.7°
